ARG1384 SAEZ-MMMX

Flight info

Callsign ARG1384
Flight time 6h 22m
Altitude 36000
Route ATOVO2A ATOVO UW5 ROS UT672 ERE UT680 TUC UL550 ALDAX/N0476F380 UL550 JCL UL308 TINLO/N0471F400 UL308 OAX UT158 KODEK UT157 LARLO LARLO4A
Aircraft A343/H-SDE2E3FGHIJ4J5M1RWXY/LB1D1

Departure

Time 2026-05-05 20:55
Airport Ezeiza International Airport - Ministro Pistarini (SAEZ)

Arrival

Time 2026-05-06 03:17
Airport Mexico City Benito Juárez International Airport (MMMX)
Time Latitude Longitude Altitude Speed Heading
2026-05-05 20:20 -34.81683 -58.54162 84 ft 0 kts 12°
2026-05-05 20:46 -34.81694 -58.54165 85 ft 4 kts 13°
2026-05-05 20:46 -34.81720 -58.54173 85 ft 4 kts 13°
2026-05-05 20:46 -34.81738 -58.54177 84 ft 4 kts
2026-05-05 20:46 -34.81764 -58.54177 84 ft 4 kts 343°
2026-05-05 20:47 -34.81785 -58.54162 85 ft 4 kts 296°
2026-05-05 20:47 -34.81788 -58.54152 85 ft 0 kts 280°
2026-05-05 20:49 -34.81788 -58.54155 79 ft 1 kts 280°
2026-05-05 20:50 -34.81787 -58.54163 84 ft 1 kts 280°
2026-05-05 20:50 -34.81784 -58.54181 80 ft 5 kts 280°
2026-05-05 20:50 -34.81775 -58.54247 83 ft 11 kts 275°
2026-05-05 20:50 -34.81769 -58.54339 82 ft 11 kts 275°
2026-05-05 20:51 -34.81762 -58.54430 83 ft 11 kts 276°
2026-05-05 20:51 -34.81755 -58.54519 82 ft 10 kts 272°
2026-05-05 20:51 -34.81761 -58.54600 80 ft 9 kts 255°
2026-05-05 20:51 -34.81775 -58.54676 82 ft 10 kts 263°
2026-05-05 20:52 -34.81766 -58.54836 83 ft 27 kts 281°
2026-05-05 20:52 -34.81712 -58.55114 82 ft 40 kts 283°
2026-05-05 20:52 -34.81708 -58.55298 85 ft 11 kts 241°
2026-05-05 20:52 -34.81747 -58.55334 84 ft 3 kts 200°
2026-05-05 20:53 -34.81828 -58.55313 85 ft 1 kts 158°
2026-05-05 20:53 -34.81857 -58.55299 81 ft 11 kts 159°
2026-05-05 20:53 -34.81919 -58.55251 87 ft 4 kts 105°
2026-05-05 20:53 -34.81919 -58.55250 87 ft 0 kts 103°
2026-05-05 20:54 -34.81921 -58.55241 86 ft 9 kts 103°
2026-05-05 20:54 -34.81973 -58.54960 85 ft 60 kts 102°
2026-05-05 20:54 -34.82094 -58.54275 90 ft 103 kts 102°
2026-05-05 20:54 -34.82274 -58.53274 88 ft 139 kts 102°
2026-05-05 20:55 -34.82495 -58.52004 135 ft 164 kts 102°
2026-05-05 20:55 -34.82834 -58.50710 647 ft 158 kts 112°
2026-05-05 20:55 -34.83379 -58.49513 1020 ft 166 kts 122°
2026-05-05 20:55 -34.84146 -58.48383 1314 ft 183 kts 131°
2026-05-05 20:56 -34.85099 -58.47255 1616 ft 200 kts 136°
2026-05-05 20:56 -34.86089 -58.46005 1939 ft 216 kts 130°
2026-05-05 20:56 -34.87084 -58.44476 2223 ft 240 kts 125°
2026-05-05 20:56 -34.88043 -58.42710 2594 ft 260 kts 122°
2026-05-05 20:57 -34.89022 -58.40769 3029 ft 277 kts 121°
2026-05-05 20:57 -34.90163 -58.38901 3789 ft 278 kts 135°
2026-05-05 20:57 -34.91775 -58.37679 4651 ft 273 kts 167°
2026-05-05 20:57 -34.93661 -58.37670 5222 ft 277 kts 200°
2026-05-05 20:58 -34.95284 -58.38881 5737 ft 276 kts 233°
2026-05-05 20:58 -34.96254 -58.40882 6363 ft 275 kts 250°
2026-05-05 20:58 -34.96914 -58.43071 7063 ft 275 kts 258°
2026-05-05 20:58 -34.97177 -58.45359 7847 ft 271 kts 271°
2026-05-05 20:59 -34.96855 -58.47599 8685 ft 268 kts 289°
2026-05-05 20:59 -34.95763 -58.49461 9261 ft 281 kts 320°
2026-05-05 20:59 -34.94049 -58.50635 9762 ft 292 kts 332°
2026-05-05 20:59 -34.92195 -58.51717 10246 ft 300 kts 330°
2026-05-05 21:00 -34.90300 -58.52927 10521 ft 315 kts 328°
2026-05-05 21:00 -34.88347 -58.54273 10788 ft 329 kts 327°
2026-05-05 21:00 -34.86333 -58.55719 11046 ft 343 kts 327°
2026-05-05 21:00 -34.84252 -58.57244 11302 ft 356 kts 326°
2026-05-05 21:01 -34.82097 -58.58839 11576 ft 367 kts 326°
2026-05-05 21:01 -34.79892 -58.60478 11989 ft 374 kts 326°
2026-05-05 21:01 -34.77666 -58.62135 12513 ft 377 kts 326°
2026-05-05 21:01 -34.75422 -58.63807 13066 ft 378 kts 326°
2026-05-05 21:02 -34.73202 -58.65461 13615 ft 381 kts 326°
2026-05-05 21:02 -34.70937 -58.67150 14135 ft 382 kts 326°
2026-05-05 21:02 -34.68669 -58.68840 14665 ft 384 kts 326°
2026-05-05 21:02 -34.66386 -58.70540 15206 ft 385 kts 326°
2026-05-05 21:03 -34.64100 -58.72242 15743 ft 386 kts 326°
2026-05-05 21:03 -34.61803 -58.73951 16296 ft 388 kts 325°
2026-05-05 21:03 -34.59499 -58.75665 16850 ft 389 kts 325°
2026-05-05 21:03 -34.57182 -58.77387 17404 ft 391 kts 325°
2026-05-05 21:04 -34.54861 -58.79111 17940 ft 393 kts 324°
2026-05-05 21:04 -34.52522 -58.80846 18456 ft 394 kts 324°
2026-05-05 21:04 -34.50177 -58.82585 18867 ft 398 kts 324°
2026-05-05 21:04 -34.47796 -58.84351 19271 ft 401 kts 324°
2026-05-05 21:05 -34.45403 -58.86123 19690 ft 404 kts 324°
2026-05-05 21:05 -34.42991 -58.87909 20100 ft 407 kts 324°
2026-05-05 21:05 -34.40568 -58.89701 20505 ft 410 kts 324°
2026-05-05 21:05 -34.38123 -58.91508 20930 ft 413 kts 324°
2026-05-05 21:06 -34.35665 -58.93323 21330 ft 416 kts 324°
2026-05-05 21:06 -34.33190 -58.95150 21726 ft 419 kts 324°
2026-05-05 21:06 -34.30692 -58.96992 22119 ft 422 kts 324°
2026-05-05 21:06 -34.28177 -58.98845 22506 ft 425 kts 324°
2026-05-05 21:07 -34.25643 -59.00711 22902 ft 427 kts 324°
2026-05-05 21:07 -34.23097 -59.02586 23290 ft 430 kts 324°
2026-05-05 21:07 -34.20531 -59.04472 23614 ft 433 kts 324°
2026-05-05 21:07 -34.17946 -59.06372 23919 ft 436 kts 324°
2026-05-05 21:08 -34.15351 -59.08278 24253 ft 438 kts 324°
2026-05-05 21:08 -34.12739 -59.10194 24564 ft 440 kts 324°
2026-05-05 21:08 -34.10120 -59.12115 24879 ft 442 kts 324°
2026-05-05 21:08 -34.07539 -59.14119 25185 ft 441 kts 320°
2026-05-05 21:09 -34.05206 -59.16497 25482 ft 438 kts 311°
2026-05-05 21:09 -34.03112 -59.19168 25799 ft 437 kts 308°
2026-05-05 21:09 -34.01136 -59.21942 26172 ft 436 kts 306°
2026-05-05 21:09 -33.99204 -59.24773 26459 ft 438 kts 306°
2026-05-05 21:10 -33.97283 -59.27625 26730 ft 440 kts 306°
2026-05-05 21:10 -33.95372 -59.30451 27010 ft 441 kts 306°
2026-05-05 21:10 -33.93414 -59.33320 27264 ft 444 kts 306°
2026-05-05 21:10 -33.91436 -59.36193 27439 ft 448 kts 306°
2026-05-05 21:11 -33.89435 -59.39079 27715 ft 449 kts 306°
2026-05-05 21:11 -33.87424 -59.41964 27986 ft 450 kts 306°
2026-05-05 21:11 -33.85413 -59.44842 28373 ft 449 kts 306°
2026-05-05 21:11 -33.83402 -59.47716 28644 ft 450 kts 306°
2026-05-05 21:12 -33.81385 -59.50599 28919 ft 450 kts 306°
2026-05-05 21:12 -33.79369 -59.53480 29283 ft 449 kts 306°
2026-05-05 21:12 -33.77360 -59.56348 29649 ft 448 kts 306°
2026-05-05 21:12 -33.75354 -59.59210 30008 ft 447 kts 306°
2026-05-05 21:13 -33.73350 -59.62070 30231 ft 448 kts 306°
2026-05-05 21:13 -33.71340 -59.64936 30406 ft 449 kts 306°
2026-05-05 21:13 -33.69343 -59.67780 30881 ft 442 kts 306°
2026-05-05 21:13 -33.67364 -59.70590 31266 ft 439 kts 306°
2026-05-05 21:14 -33.65390 -59.73392 31509 ft 439 kts 306°
2026-05-05 21:14 -33.63421 -59.76185 31711 ft 439 kts 306°
2026-05-05 21:14 -33.61447 -59.78983 31968 ft 439 kts 306°
2026-05-05 21:14 -33.59472 -59.81781 32223 ft 438 kts 306°
2026-05-05 21:15 -33.57507 -59.84561 32455 ft 437 kts 306°
2026-05-05 21:15 -33.55539 -59.87344 32711 ft 437 kts 306°
2026-05-05 21:15 -33.53580 -59.90111 32997 ft 435 kts 306°
2026-05-05 21:15 -33.51626 -59.92868 33289 ft 433 kts 305°
2026-05-05 21:16 -33.49704 -59.95581 33480 ft 433 kts 305°
2026-05-05 21:16 -33.47755 -59.98328 33680 ft 432 kts 305°
2026-05-05 21:16 -33.45811 -60.01069 33899 ft 432 kts 305°
2026-05-05 21:16 -33.43866 -60.03807 34095 ft 431 kts 305°
2026-05-05 21:17 -33.41924 -60.06538 34293 ft 430 kts 305°
2026-05-05 21:17 -33.39985 -60.09264 34481 ft 429 kts 305°
2026-05-05 21:17 -33.38049 -60.11982 34650 ft 428 kts 305°
2026-05-05 21:17 -33.36126 -60.14680 34928 ft 425 kts 305°
2026-05-05 21:18 -33.34209 -60.17366 35154 ft 423 kts 304°
2026-05-05 21:18 -33.32300 -60.20042 35333 ft 422 kts 304°
2026-05-05 21:18 -33.30395 -60.22710 35500 ft 422 kts 304°
2026-05-05 21:18 -33.28490 -60.25377 35665 ft 421 kts 304°
2026-05-05 21:19 -33.26610 -60.28007 35821 ft 420 kts 304°
2026-05-05 21:19 -33.24713 -60.30659 35906 ft 421 kts 304°
2026-05-05 21:19 -33.20878 -60.36018 35888 ft 427 kts 304°
2026-05-05 21:20 -33.16989 -60.41444 35910 ft 433 kts 304°
2026-05-05 21:20 -33.13044 -60.46934 35924 ft 437 kts 304°
2026-05-05 21:21 -33.09089 -60.52422 35905 ft 435 kts 304°
2026-05-05 21:21 -33.05148 -60.57885 35906 ft 434 kts 304°
2026-05-05 21:22 -33.01209 -60.63341 35888 ft 433 kts 304°
2026-05-05 21:22 -32.97276 -60.68781 35885 ft 433 kts 304°
2026-05-05 21:23 -32.93296 -60.74168 35883 ft 436 kts 308°
2026-05-05 21:23 -32.88391 -60.78589 35883 ft 452 kts 324°
2026-05-05 21:24 -32.82461 -60.81418 35884 ft 463 kts 332°
2026-05-05 21:24 -32.76348 -60.83780 35886 ft 466 kts 333°
2026-05-05 21:25 -32.70171 -60.86111 35890 ft 465 kts 333°
2026-05-05 21:25 -32.64011 -60.88476 35877 ft 465 kts 332°
2026-05-05 21:26 -32.57858 -60.90864 35894 ft 465 kts 332°
2026-05-05 21:26 -32.51717 -60.93252 35896 ft 465 kts 332°
2026-05-05 21:27 -32.45561 -60.95641 35895 ft 465 kts 332°
2026-05-05 21:27 -32.39413 -60.98022 35885 ft 465 kts 332°
2026-05-05 21:28 -32.33267 -61.00399 35889 ft 465 kts 332°
2026-05-05 21:28 -32.27118 -61.02772 35886 ft 465 kts 332°
2026-05-05 21:29 -32.20974 -61.05141 35869 ft 464 kts 332°
2026-05-05 21:29 -32.14834 -61.07502 35882 ft 462 kts 332°
2026-05-05 21:30 -32.08723 -61.09852 35882 ft 462 kts 332°
2026-05-05 21:30 -32.02606 -61.12202 35879 ft 462 kts 332°
2026-05-05 21:31 -31.96527 -61.14532 35870 ft 462 kts 332°
2026-05-05 21:31 -31.90410 -61.16874 35875 ft 462 kts 332°
2026-05-05 21:32 -31.84294 -61.19213 35873 ft 462 kts 332°
2026-05-05 21:32 -31.79171 -61.21169 35873 ft 462 kts 332°
2026-05-05 21:33 -31.73057 -61.23500 35871 ft 462 kts 332°
2026-05-05 21:33 -31.66948 -61.25826 35871 ft 462 kts 332°
2026-05-05 21:34 -31.60836 -61.28150 35872 ft 462 kts 332°
2026-05-05 21:34 -31.54724 -61.30471 35832 ft 462 kts 331°
2026-05-05 21:35 -31.48621 -61.32784 35867 ft 461 kts 331°
2026-05-05 21:35 -31.42555 -61.35081 35872 ft 460 kts 331°
2026-05-05 21:36 -31.36461 -61.37385 35867 ft 460 kts 331°
2026-05-05 21:36 -31.30381 -61.39682 35862 ft 459 kts 331°
2026-05-05 21:37 -31.24300 -61.41965 35864 ft 458 kts 331°
2026-05-05 21:37 -31.18226 -61.44229 35861 ft 458 kts 331°
2026-05-05 21:38 -31.12154 -61.46492 35861 ft 458 kts 331°
2026-05-05 21:38 -31.06082 -61.48753 35859 ft 457 kts 331°
2026-05-05 21:39 -31.00022 -61.51008 35859 ft 457 kts 331°
2026-05-05 21:39 -30.93970 -61.53259 35859 ft 457 kts 331°
2026-05-05 21:40 -30.87918 -61.55506 35862 ft 457 kts 331°
2026-05-05 21:40 -30.81867 -61.57748 35859 ft 456 kts 331°
2026-05-05 21:41 -30.75870 -61.59968 35858 ft 455 kts 331°
2026-05-05 21:41 -30.69834 -61.62200 35853 ft 455 kts 331°
2026-05-05 21:42 -30.63787 -61.64434 35855 ft 455 kts 331°
2026-05-05 21:42 -30.57749 -61.66660 35852 ft 455 kts 331°
2026-05-05 21:43 -30.51712 -61.68895 35855 ft 455 kts 331°
2026-05-05 21:43 -30.45674 -61.71125 35853 ft 455 kts 331°
2026-05-05 21:44 -30.39638 -61.73349 35843 ft 455 kts 331°
2026-05-05 21:44 -30.33606 -61.75570 35852 ft 455 kts 331°
2026-05-05 21:45 -30.27568 -61.77792 35849 ft 455 kts 331°
2026-05-05 21:45 -30.21540 -61.80008 35852 ft 455 kts 331°
2026-05-05 21:46 -30.15553 -61.82206 35851 ft 455 kts 331°
2026-05-05 21:46 -30.09523 -61.84416 35850 ft 455 kts 331°
2026-05-05 21:47 -30.03490 -61.86624 35854 ft 455 kts 331°
2026-05-05 21:47 -29.97466 -61.88827 35854 ft 455 kts 331°
2026-05-05 21:48 -29.91440 -61.91060 35848 ft 451 kts 328°
2026-05-05 21:48 -29.88600 -61.92488 35856 ft 440 kts 322°
2026-05-05 21:48 -29.86022 -61.94304 35851 ft 428 kts 314°
2026-05-05 21:49 -29.81578 -61.98710 35851 ft 419 kts 308°
2026-05-05 21:49 -29.77369 -62.03332 35851 ft 418 kts 307°
2026-05-05 21:50 -29.73180 -62.07977 35833 ft 418 kts 308°
2026-05-05 21:50 -29.68955 -62.12619 35852 ft 421 kts 308°
2026-05-05 21:51 -29.64703 -62.17255 35845 ft 421 kts 308°
2026-05-05 21:51 -29.60446 -62.21885 35845 ft 422 kts 308°
2026-05-05 21:52 -29.54064 -62.28815 35844 ft 420 kts 308°
2026-05-05 21:53 -29.49842 -62.33397 35843 ft 421 kts 308°
2026-05-05 21:53 -29.45578 -62.38021 35843 ft 422 kts 308°
2026-05-05 21:54 -29.41312 -62.42638 35839 ft 422 kts 308°
2026-05-05 21:54 -29.37039 -62.47257 35840 ft 422 kts 308°
2026-05-05 21:55 -29.32773 -62.51863 35814 ft 422 kts 308°
2026-05-05 21:55 -29.28500 -62.56472 35837 ft 422 kts 308°
2026-05-05 21:56 -29.24223 -62.61078 35841 ft 422 kts 308°
2026-05-05 21:56 -29.19952 -62.65674 35837 ft 421 kts 308°
2026-05-05 21:57 -29.15676 -62.70270 35836 ft 422 kts 308°
2026-05-05 21:57 -29.11398 -62.74862 35819 ft 422 kts 309°
2026-05-05 21:58 -29.07109 -62.79462 35835 ft 423 kts 309°
2026-05-05 21:58 -29.02805 -62.84071 35838 ft 423 kts 309°
2026-05-05 21:59 -28.98538 -62.88631 35829 ft 422 kts 309°
2026-05-05 21:59 -28.94260 -62.93209 35827 ft 422 kts 309°
2026-05-05 22:00 -28.89976 -62.97774 35820 ft 422 kts 309°
2026-05-05 22:00 -28.85673 -63.02357 35831 ft 424 kts 309°
2026-05-05 22:01 -28.81364 -63.06942 35832 ft 424 kts 309°
2026-05-05 22:01 -28.77043 -63.11533 35829 ft 424 kts 309°
2026-05-05 22:02 -28.72733 -63.16107 35831 ft 423 kts 309°
2026-05-05 22:02 -28.68422 -63.20678 35819 ft 423 kts 309°
2026-05-05 22:03 -28.64108 -63.25249 35827 ft 424 kts 309°
2026-05-05 22:03 -28.59780 -63.29827 35826 ft 425 kts 309°
2026-05-05 22:04 -28.51789 -63.38265 35826 ft 425 kts 309°
2026-05-05 22:04 -28.43130 -63.47389 35826 ft 423 kts 309°
2026-05-05 22:05 -28.34496 -63.56465 35826 ft 423 kts 309°
2026-05-05 22:05 -28.27668 -63.63629 35824 ft 423 kts 309°
2026-05-05 22:06 -28.23337 -63.68166 35824 ft 424 kts 309°
2026-05-05 22:06 -28.18999 -63.72705 35828 ft 424 kts 309°
2026-05-05 22:07 -28.14655 -63.77243 35829 ft 423 kts 309°
2026-05-05 22:07 -28.10331 -63.81756 35829 ft 423 kts 309°
2026-05-05 22:08 -28.06004 -63.86269 35830 ft 423 kts 310°
2026-05-05 22:08 -28.01684 -63.90783 35827 ft 423 kts 309°
2026-05-05 22:09 -27.96092 -63.96642 35831 ft 424 kts 310°
2026-05-05 22:09 -27.88092 -64.04996 35846 ft 424 kts 310°
2026-05-05 22:10 -27.83756 -64.09514 35835 ft 423 kts 310°
2026-05-05 22:10 -27.79425 -64.14025 35825 ft 424 kts 310°
2026-05-05 22:11 -27.72206 -64.21530 35828 ft 425 kts 310°
2026-05-05 22:11 -27.63488 -64.30572 35830 ft 425 kts 310°
2026-05-05 22:12 -27.54764 -64.39604 35834 ft 427 kts 310°
2026-05-05 22:12 -27.45996 -64.48655 35842 ft 427 kts 310°
2026-05-05 22:13 -27.37226 -64.57691 35821 ft 427 kts 311°
2026-05-05 22:13 -27.28418 -64.66685 35846 ft 428 kts 311°
2026-05-05 22:14 -27.19557 -64.75628 35844 ft 428 kts 311°
2026-05-05 22:14 -27.10701 -64.84572 35846 ft 428 kts 311°
2026-05-05 22:15 -27.05381 -64.89935 35858 ft 428 kts 311°
2026-05-05 22:15 -27.00949 -64.94394 35866 ft 428 kts 311°
2026-05-05 22:16 -26.96520 -64.98848 35875 ft 428 kts 311°
2026-05-05 22:16 -26.92098 -65.03289 35886 ft 426 kts 311°
2026-05-05 22:17 -26.87710 -65.07692 35884 ft 426 kts 312°
2026-05-05 22:17 -26.83288 -65.12117 35883 ft 427 kts 313°
2026-05-05 22:18 -26.78696 -65.16370 35882 ft 429 kts 315°
2026-05-05 22:18 -26.74041 -65.20532 35883 ft 428 kts 315°
2026-05-05 22:19 -26.69405 -65.24714 35892 ft 428 kts 314°
2026-05-05 22:19 -26.65565 -65.28208 35889 ft 429 kts 314°
2026-05-05 22:20 -26.60930 -65.32436 35900 ft 429 kts 314°
2026-05-05 22:20 -26.56304 -65.36651 35916 ft 429 kts 314°
2026-05-05 22:21 -26.51671 -65.40867 35920 ft 429 kts 314°
2026-05-05 22:21 -26.47046 -65.45069 35919 ft 429 kts 314°
2026-05-05 22:22 -26.42414 -65.49274 35930 ft 429 kts 315°
2026-05-05 22:22 -26.37779 -65.53477 35933 ft 429 kts 315°
2026-05-05 22:23 -26.33142 -65.57677 35937 ft 429 kts 315°
2026-05-05 22:23 -26.28539 -65.61843 35953 ft 428 kts 315°
2026-05-05 22:24 -26.23919 -65.66015 35936 ft 426 kts 315°
2026-05-05 22:24 -26.19314 -65.70174 35935 ft 426 kts 315°
2026-05-05 22:25 -26.14708 -65.74330 35955 ft 426 kts 315°
2026-05-05 22:25 -26.10111 -65.78478 35959 ft 426 kts 315°
2026-05-05 22:26 -26.05505 -65.82620 35951 ft 425 kts 315°
2026-05-05 22:26 -26.00908 -65.86748 35952 ft 425 kts 315°
2026-05-05 22:27 -25.96304 -65.90879 35964 ft 425 kts 315°
2026-05-05 22:27 -25.91726 -65.94986 35974 ft 427 kts 315°
2026-05-05 22:28 -25.87094 -65.99137 35972 ft 427 kts 315°
2026-05-05 22:28 -25.82469 -66.03275 35981 ft 427 kts 315°
2026-05-05 22:29 -25.77839 -66.07414 35982 ft 427 kts 315°
2026-05-05 22:29 -25.73210 -66.11553 35966 ft 427 kts 315°
2026-05-05 22:30 -25.67691 -66.16478 35990 ft 431 kts 315°
2026-05-05 22:30 -25.58303 -66.24843 35975 ft 433 kts 315°
2026-05-05 22:31 -25.48920 -66.33192 35991 ft 432 kts 315°
2026-05-05 22:31 -25.40022 -66.41081 36960 ft 432 kts 316°
2026-05-05 22:31 -25.37573 -66.43259 35988 ft 434 kts 316°
2026-05-05 22:32 -25.35174 -66.45292 36006 ft 432 kts 318°
2026-05-05 22:32 -25.30463 -66.49331 36006 ft 430 kts 315°
2026-05-05 22:33 -25.25816 -66.53530 36059 ft 433 kts 315°
2026-05-05 22:33 -25.21162 -66.57696 36020 ft 433 kts 316°
2026-05-05 22:34 -25.16438 -66.61878 36076 ft 438 kts 316°
2026-05-05 22:34 -25.08787 -66.68621 36079 ft 437 kts 316°
2026-05-05 22:35 -24.99652 -66.76665 36071 ft 436 kts 316°
2026-05-05 22:35 -24.94907 -66.80836 36062 ft 436 kts 316°
2026-05-05 22:36 -24.90153 -66.85020 36080 ft 438 kts 316°
2026-05-05 22:36 -24.85390 -66.89195 36074 ft 438 kts 316°
2026-05-05 22:37 -24.80617 -66.93371 36053 ft 439 kts 316°
2026-05-05 22:37 -24.75839 -66.97553 36047 ft 439 kts 316°
2026-05-05 22:38 -24.71062 -67.01731 36041 ft 439 kts 316°
2026-05-05 22:38 -24.66305 -67.05888 36041 ft 440 kts 316°
2026-05-05 22:39 -24.61496 -67.10085 36043 ft 441 kts 316°
2026-05-05 22:39 -24.51908 -67.18440 36030 ft 440 kts 316°
2026-05-05 22:40 -24.42311 -67.26789 36040 ft 440 kts 317°
2026-05-05 22:40 -24.32708 -67.35122 36070 ft 441 kts 317°
2026-05-05 22:41 -24.23075 -67.43467 36093 ft 442 kts 317°
2026-05-05 22:41 -24.13402 -67.51828 36126 ft 443 kts 317°
2026-05-05 22:42 -24.03729 -67.60063 36158 ft 443 kts 318°
2026-05-05 22:42 -23.93943 -67.68273 36116 ft 443 kts 318°
2026-05-05 22:43 -23.84133 -67.76517 36138 ft 445 kts 318°
2026-05-05 22:43 -23.74952 -67.84219 36068 ft 445 kts 318°
2026-05-05 22:44 -23.70022 -67.88351 36055 ft 445 kts 318°
2026-05-05 22:44 -23.65104 -67.92468 36054 ft 445 kts 318°
2026-05-05 22:45 -23.60186 -67.96582 35972 ft 445 kts 318°
2026-05-05 22:45 -23.55268 -68.00690 35972 ft 445 kts 318°
2026-05-05 22:46 -23.50347 -68.04798 35974 ft 446 kts 318°
2026-05-05 22:46 -23.45423 -68.08905 35972 ft 446 kts 318°
2026-05-05 22:47 -23.40501 -68.13005 35955 ft 446 kts 319°
2026-05-05 22:47 -23.35571 -68.17109 35960 ft 446 kts 319°
2026-05-05 22:48 -23.30645 -68.21204 35918 ft 445 kts 319°
2026-05-05 22:48 -23.25736 -68.25281 35915 ft 444 kts 319°
2026-05-05 22:49 -23.20860 -68.29328 35913 ft 443 kts 319°
2026-05-05 22:49 -23.15958 -68.33393 35913 ft 443 kts 319°
2026-05-05 22:50 -23.11046 -68.37463 35912 ft 444 kts 319°
2026-05-05 22:50 -23.06123 -68.41542 35923 ft 445 kts 319°
2026-05-05 22:51 -23.01191 -68.45617 35921 ft 446 kts 319°
2026-05-05 22:51 -22.96249 -68.49698 35959 ft 446 kts 319°
2026-05-05 22:52 -22.91313 -68.53777 35962 ft 446 kts 319°
2026-05-05 22:52 -22.86372 -68.57845 35971 ft 446 kts 319°
2026-05-05 22:53 -22.81417 -68.61924 35998 ft 447 kts 319°
2026-05-05 22:53 -22.76485 -68.65982 36024 ft 448 kts 319°
2026-05-05 22:54 -22.71525 -68.70059 36091 ft 448 kts 319°
2026-05-05 22:54 -22.66551 -68.74143 36163 ft 448 kts 319°
2026-05-05 22:55 -22.61586 -68.78217 36230 ft 448 kts 320°
2026-05-05 22:55 -22.56613 -68.82294 36303 ft 449 kts 320°
2026-05-05 22:56 -22.51622 -68.86383 36306 ft 450 kts 320°
2026-05-05 22:56 -22.49130 -68.88428 36007 ft 449 kts 319°
2026-05-05 22:56 -22.46693 -68.90536 36009 ft 447 kts 317°
2026-05-05 22:57 -22.41936 -68.94864 36006 ft 446 kts 317°
2026-05-05 22:57 -22.37192 -68.99200 36006 ft 446 kts 317°
2026-05-05 22:58 -22.32454 -69.03476 35985 ft 447 kts 317°
2026-05-05 22:58 -22.27652 -69.07779 35992 ft 449 kts 317°
2026-05-05 22:59 -22.22835 -69.12085 36003 ft 449 kts 317°
2026-05-05 22:59 -22.18024 -69.16384 35982 ft 449 kts 317°
2026-05-05 23:00 -22.10809 -69.22825 35990 ft 448 kts 317°
2026-05-05 23:00 -22.06019 -69.27096 35938 ft 447 kts 318°
2026-05-05 23:01 -22.01252 -69.31345 35948 ft 448 kts 318°
2026-05-05 23:01 -21.96443 -69.35626 35951 ft 449 kts 318°
2026-05-05 23:02 -21.91627 -69.39909 35916 ft 448 kts 318°
2026-05-05 23:02 -21.86814 -69.44186 35924 ft 448 kts 318°
2026-05-05 23:03 -21.81991 -69.48468 35920 ft 449 kts 318°
2026-05-05 23:03 -21.77177 -69.52739 35922 ft 449 kts 318°
2026-05-05 23:04 -21.72347 -69.57021 35922 ft 450 kts 318°
2026-05-05 23:04 -21.67504 -69.61309 35919 ft 450 kts 318°
2026-05-05 23:05 -21.62663 -69.65590 35920 ft 450 kts 318°
2026-05-05 23:05 -21.57859 -69.69836 35921 ft 450 kts 318°
2026-05-05 23:06 -21.53023 -69.74106 35926 ft 450 kts 318°
2026-05-05 23:06 -21.48178 -69.78381 35926 ft 451 kts 318°
2026-05-05 23:07 -21.43312 -69.82671 35925 ft 453 kts 318°
2026-05-05 23:07 -21.39261 -69.86238 35934 ft 453 kts 318°
2026-05-05 23:08 -21.34394 -69.90521 35935 ft 452 kts 319°
2026-05-05 23:08 -21.29529 -69.94799 35933 ft 452 kts 319°
2026-05-05 23:09 -21.24665 -69.99073 35942 ft 452 kts 319°
2026-05-05 23:09 -21.19798 -70.03344 35935 ft 453 kts 319°
2026-05-05 23:10 -21.14908 -70.07633 35951 ft 454 kts 319°
2026-05-05 23:10 -21.10016 -70.11919 35947 ft 454 kts 319°
2026-05-05 23:11 -21.05125 -70.16201 35948 ft 454 kts 319°
2026-05-05 23:11 -21.00262 -70.20454 35945 ft 454 kts 319°
2026-05-05 23:12 -20.95344 -70.24753 35945 ft 453 kts 319°
2026-05-05 23:12 -20.90495 -70.28984 35945 ft 453 kts 319°
2026-05-05 23:13 -20.85615 -70.33238 35945 ft 453 kts 319°
2026-05-05 23:13 -20.79913 -70.38206 35947 ft 453 kts 319°
2026-05-05 23:14 -20.70143 -70.46707 35942 ft 453 kts 319°
2026-05-05 23:14 -20.60366 -70.55208 35949 ft 454 kts 319°
2026-05-05 23:15 -20.50561 -70.63717 35939 ft 454 kts 319°
2026-05-05 23:15 -20.40761 -70.72210 35943 ft 454 kts 319°
2026-05-05 23:16 -20.30967 -70.80687 35945 ft 454 kts 319°
2026-05-05 23:16 -20.21216 -70.89093 35944 ft 454 kts 319°
2026-05-05 23:17 -20.11386 -70.97561 35950 ft 454 kts 319°
2026-05-05 23:17 -20.01560 -71.06012 35949 ft 453 kts 319°
2026-05-05 23:18 -19.91754 -71.14431 35948 ft 453 kts 319°
2026-05-05 23:18 -19.81945 -71.22840 35949 ft 453 kts 319°
2026-05-05 23:19 -19.72110 -71.31257 35949 ft 455 kts 320°
2026-05-05 23:19 -19.62252 -71.39679 35948 ft 455 kts 320°
2026-05-05 23:20 -19.52454 -71.48038 35948 ft 455 kts 320°
2026-05-05 23:20 -19.42590 -71.56438 35953 ft 456 kts 320°
2026-05-05 23:21 -19.32714 -71.64836 35952 ft 455 kts 320°
2026-05-05 23:21 -19.22844 -71.73215 35951 ft 454 kts 320°
2026-05-05 23:22 -19.12967 -71.81587 35953 ft 455 kts 320°
2026-05-05 23:22 -19.03070 -71.89962 35955 ft 455 kts 320°
2026-05-05 23:23 -18.93183 -71.98315 35953 ft 455 kts 320°
2026-05-05 23:23 -18.83289 -72.06662 35957 ft 455 kts 320°
2026-05-05 23:24 -18.73367 -72.15020 35957 ft 455 kts 320°
2026-05-05 23:24 -18.63465 -72.23348 35964 ft 455 kts 320°
2026-05-05 23:25 -18.53546 -72.31677 35966 ft 456 kts 321°
2026-05-05 23:25 -18.43624 -72.39995 35953 ft 456 kts 321°
2026-05-05 23:26 -18.33685 -72.48317 36082 ft 457 kts 320°
2026-05-05 23:26 -18.28768 -72.52433 36289 ft 458 kts 321°
2026-05-05 23:26 -18.23762 -72.56620 36380 ft 459 kts 321°
2026-05-05 23:27 -18.13783 -72.64955 36591 ft 457 kts 321°
2026-05-05 23:27 -18.06490 -72.71041 36744 ft 457 kts 321°
2026-05-05 23:28 -17.96535 -72.79336 36923 ft 456 kts 321°
2026-05-05 23:28 -17.86576 -72.87623 37061 ft 456 kts 321°
2026-05-05 23:29 -17.81609 -72.91751 37183 ft 455 kts 321°
2026-05-05 23:29 -17.76669 -72.95853 37676 ft 450 kts 320°
2026-05-05 23:29 -17.71825 -72.99873 37977 ft 449 kts 320°
2026-05-05 23:29 -17.67126 -73.03771 37998 ft 452 kts 320°
2026-05-05 23:30 -17.62190 -73.07861 38002 ft 452 kts 320°
2026-05-05 23:30 -17.57249 -73.11953 38005 ft 452 kts 320°
2026-05-05 23:31 -17.52312 -73.16039 37990 ft 453 kts 320°
2026-05-05 23:31 -17.47365 -73.20130 37999 ft 453 kts 320°
2026-05-05 23:32 -17.42426 -73.24211 38000 ft 453 kts 320°
2026-05-05 23:32 -17.34027 -73.31146 37995 ft 453 kts 321°
2026-05-05 23:33 -17.24087 -73.39341 37999 ft 453 kts 321°
2026-05-05 23:33 -17.14251 -73.47440 38002 ft 453 kts 321°
2026-05-05 23:34 -17.04324 -73.55602 37998 ft 454 kts 321°
2026-05-05 23:34 -16.94376 -73.63771 37999 ft 455 kts 321°
2026-05-05 23:35 -16.84409 -73.71942 37996 ft 455 kts 321°
2026-05-05 23:35 -16.74451 -73.80096 37984 ft 455 kts 321°
2026-05-05 23:36 -16.69162 -73.84423 37994 ft 456 kts 321°
2026-05-05 23:36 -16.64199 -73.88479 37998 ft 456 kts 321°
2026-05-05 23:37 -16.59200 -73.92563 37998 ft 456 kts 321°
2026-05-05 23:37 -16.54202 -73.96645 37996 ft 456 kts 321°
2026-05-05 23:38 -16.49200 -74.00723 37999 ft 456 kts 321°
2026-05-05 23:38 -16.44198 -74.04796 37990 ft 456 kts 321°
2026-05-05 23:39 -16.39230 -74.08840 37990 ft 457 kts 321°
2026-05-05 23:39 -16.34215 -74.12921 37993 ft 458 kts 321°
2026-05-05 23:40 -16.29191 -74.17006 37992 ft 458 kts 321°
2026-05-05 23:40 -16.24176 -74.21081 37992 ft 458 kts 321°
2026-05-05 23:41 -16.19153 -74.25159 38000 ft 458 kts 321°
2026-05-05 23:41 -16.12885 -74.30246 37998 ft 458 kts 321°
2026-05-05 23:42 -16.02835 -74.38392 37995 ft 458 kts 321°
2026-05-05 23:42 -15.92768 -74.46541 37996 ft 458 kts 321°
2026-05-05 23:43 -15.82708 -74.54674 38006 ft 458 kts 321°
2026-05-05 23:43 -15.77250 -74.59082 38014 ft 458 kts 321°
2026-05-05 23:44 -15.72237 -74.63128 38018 ft 460 kts 321°
2026-05-05 23:44 -15.67187 -74.67201 38016 ft 460 kts 321°
2026-05-05 23:45 -15.62132 -74.71276 38030 ft 460 kts 321°
2026-05-05 23:45 -15.57080 -74.75346 38029 ft 460 kts 321°
2026-05-05 23:46 -15.48001 -74.82652 38033 ft 460 kts 321°
2026-05-05 23:46 -15.37873 -74.90795 38045 ft 461 kts 321°
2026-05-05 23:47 -15.17555 -75.07096 38034 ft 462 kts 321°
2026-05-05 23:48 -15.07381 -75.15244 38041 ft 463 kts 321°
2026-05-05 23:48 -14.97174 -75.23408 38036 ft 463 kts 321°
2026-05-05 23:49 -14.86971 -75.31558 38042 ft 463 kts 321°
2026-05-05 23:49 -14.76769 -75.39698 38030 ft 463 kts 321°
2026-05-05 23:50 -14.66578 -75.47818 38046 ft 462 kts 321°
2026-05-05 23:50 -14.56394 -75.55924 38031 ft 462 kts 321°
2026-05-05 23:51 -14.46211 -75.64019 38042 ft 463 kts 321°
2026-05-05 23:51 -14.36067 -75.72075 38022 ft 463 kts 321°
2026-05-05 23:52 -14.25842 -75.80184 37998 ft 463 kts 321°
2026-05-05 23:52 -14.15626 -75.88276 37994 ft 463 kts 321°
2026-05-05 23:53 -14.05375 -75.96387 37968 ft 465 kts 321°
2026-05-05 23:53 -13.95112 -76.04499 37958 ft 465 kts 321°
2026-05-05 23:54 -13.89483 -76.08944 37940 ft 465 kts 321°
2026-05-05 23:54 -13.84347 -76.12997 37937 ft 465 kts 321°
2026-05-05 23:55 -13.79202 -76.17055 37939 ft 466 kts 322°
2026-05-05 23:55 -13.73920 -76.20918 37938 ft 468 kts 330°
2026-05-05 23:56 -13.67991 -76.23689 37940 ft 469 kts 336°
2026-05-05 23:56 -13.62946 -76.25748 37941 ft 469 kts 337°
2026-05-05 23:57 -13.56850 -76.28171 37933 ft 469 kts 337°
2026-05-05 23:57 -13.49775 -76.30999 37940 ft 469 kts 337°
2026-05-05 23:58 -13.43697 -76.33447 37937 ft 470 kts 337°
2026-05-05 23:58 -13.37494 -76.35950 37949 ft 471 kts 337°
2026-05-05 23:59 -13.27361 -76.40033 37928 ft 471 kts 337°
2026-05-05 23:59 -13.15171 -76.44939 37937 ft 471 kts 337°
2026-05-06 00:00 -13.02952 -76.49852 37964 ft 472 kts 337°
2026-05-06 00:00 -12.90703 -76.54772 37939 ft 473 kts 337°
2026-05-06 00:01 -12.78456 -76.59696 37944 ft 473 kts 336°
2026-05-06 00:01 -12.67251 -76.66694 37950 ft 472 kts 325°
2026-05-06 00:02 -12.56401 -76.74281 37944 ft 472 kts 325°
2026-05-06 00:02 -12.45581 -76.81786 37939 ft 472 kts 325°
2026-05-06 00:03 -12.34664 -76.89341 37956 ft 474 kts 325°
2026-05-06 00:03 -12.23731 -76.96901 37932 ft 474 kts 325°
2026-05-06 00:04 -12.12788 -77.04462 37972 ft 474 kts 325°
2026-05-06 00:04 -12.01618 -77.11676 37955 ft 476 kts 332°
2026-05-06 00:05 -11.83722 -77.20560 37938 ft 476 kts 333°
2026-05-06 00:06 -11.71794 -77.26439 37938 ft 476 kts 333°
2026-05-06 00:06 -11.61004 -77.31760 37945 ft 477 kts 333°
2026-05-06 00:07 -11.49121 -77.37613 37940 ft 477 kts 333°
2026-05-06 00:07 -11.37163 -77.43498 37949 ft 477 kts 333°
2026-05-06 00:08 -11.25208 -77.49376 37961 ft 477 kts 333°
2026-05-06 00:08 -11.13245 -77.55259 37944 ft 477 kts 333°
2026-05-06 00:09 -11.01277 -77.61131 37962 ft 477 kts 333°
2026-05-06 00:09 -10.89332 -77.66991 37943 ft 476 kts 333°
2026-05-06 00:10 -10.77389 -77.72845 37957 ft 476 kts 333°
2026-05-06 00:10 -10.65440 -77.78697 37960 ft 478 kts 333°
2026-05-06 00:11 -10.53438 -77.84568 37954 ft 479 kts 333°
2026-05-06 00:11 -10.41444 -77.90432 37960 ft 478 kts 333°
2026-05-06 00:12 -10.29449 -77.96290 37956 ft 479 kts 333°
2026-05-06 00:12 -10.18235 -78.03331 37950 ft 475 kts 312°
2026-05-06 00:13 -10.10561 -78.13271 37940 ft 476 kts 306°
2026-05-06 00:13 -10.02779 -78.23916 37942 ft 476 kts 307°
2026-05-06 00:14 -9.94856 -78.34616 37937 ft 478 kts 307°
2026-05-06 00:14 -9.86847 -78.45415 37934 ft 479 kts 307°
2026-05-06 00:15 -9.78843 -78.56201 37936 ft 479 kts 307°
2026-05-06 00:15 -9.70652 -78.66850 37931 ft 479 kts 315°
2026-05-06 00:16 -9.60035 -78.74938 37935 ft 479 kts 325°
2026-05-06 00:16 -9.49026 -78.82542 37932 ft 479 kts 325°
2026-05-06 00:17 -9.38045 -78.90194 37923 ft 478 kts 324°
2026-05-06 00:17 -9.27072 -78.97843 37928 ft 480 kts 324°
2026-05-06 00:18 -9.16058 -79.05512 37931 ft 480 kts 324°
2026-05-06 00:18 -9.05123 -79.13120 37925 ft 480 kts 325°
2026-05-06 00:19 -8.94119 -79.20771 37928 ft 480 kts 325°
2026-05-06 00:19 -8.83104 -79.28423 37923 ft 481 kts 325°
2026-05-06 00:20 -8.72084 -79.36074 37919 ft 481 kts 325°
2026-05-06 00:20 -8.63737 -79.41865 37910 ft 481 kts 325°
2026-05-06 00:21 -8.58219 -79.45691 37906 ft 480 kts 325°
2026-05-06 00:21 -8.52716 -79.49506 37910 ft 480 kts 325°
2026-05-06 00:22 -8.47202 -79.53327 37907 ft 481 kts 325°
2026-05-06 00:22 -8.41692 -79.57144 37907 ft 480 kts 325°
2026-05-06 00:23 -8.36176 -79.60964 37911 ft 480 kts 325°
2026-05-06 00:23 -8.30696 -79.64756 37913 ft 480 kts 325°
2026-05-06 00:24 -8.19752 -79.72333 37916 ft 481 kts 325°
2026-05-06 00:24 -8.08691 -79.79983 37924 ft 481 kts 325°
2026-05-06 00:25 -7.97636 -79.87624 37922 ft 481 kts 325°
2026-05-06 00:25 -7.86601 -79.95246 37923 ft 481 kts 325°
2026-05-06 00:26 -7.75569 -80.02861 37927 ft 481 kts 325°
2026-05-06 00:26 -7.64522 -80.10481 37927 ft 481 kts 325°
2026-05-06 00:27 -7.53484 -80.18090 37928 ft 480 kts 325°
2026-05-06 00:27 -7.42455 -80.25688 37923 ft 481 kts 325°
2026-05-06 00:28 -7.31381 -80.33313 37927 ft 481 kts 325°
2026-05-06 00:28 -7.20316 -80.40927 37929 ft 481 kts 325°
2026-05-06 00:29 -7.09331 -80.48480 37924 ft 482 kts 324°
2026-05-06 00:29 -6.98244 -80.56100 37927 ft 482 kts 324°
2026-05-06 00:30 -6.87159 -80.63714 37916 ft 482 kts 324°
2026-05-06 00:30 -6.76060 -80.71333 37918 ft 482 kts 324°
2026-05-06 00:31 -6.64965 -80.78945 37918 ft 483 kts 324°
2026-05-06 00:31 -6.53849 -80.86567 37912 ft 483 kts 324°
2026-05-06 00:32 -6.42747 -80.94175 37915 ft 483 kts 324°
2026-05-06 00:32 -6.31622 -81.01795 37915 ft 484 kts 324°
2026-05-06 00:33 -6.20592 -81.09347 37913 ft 484 kts 324°
2026-05-06 00:33 -6.15030 -81.13153 37908 ft 484 kts 324°
2026-05-06 00:34 -6.09499 -81.16937 37908 ft 484 kts 324°
2026-05-06 00:34 -6.02020 -81.22052 37897 ft 484 kts 324°
2026-05-06 00:35 -5.96434 -81.25868 37917 ft 485 kts 324°
2026-05-06 00:35 -5.90853 -81.29681 37926 ft 484 kts 324°
2026-05-06 00:36 -5.82013 -81.35722 37919 ft 483 kts 324°
2026-05-06 00:36 -5.70895 -81.43318 37917 ft 483 kts 324°
2026-05-06 00:37 -5.59773 -81.50913 37918 ft 484 kts 324°
2026-05-06 00:37 -5.48654 -81.58505 37916 ft 483 kts 324°
2026-05-06 00:38 -5.37514 -81.66104 37931 ft 484 kts 324°
2026-05-06 00:38 -5.26411 -81.73670 37922 ft 482 kts 324°
2026-05-06 00:39 -5.15318 -81.81231 37927 ft 482 kts 324°
2026-05-06 00:39 -5.04216 -81.88793 37928 ft 482 kts 324°
2026-05-06 00:40 -4.93118 -81.96351 37931 ft 482 kts 324°
2026-05-06 00:40 -4.82013 -82.03909 37928 ft 484 kts 324°
2026-05-06 00:41 -4.70937 -82.11445 37932 ft 483 kts 324°
2026-05-06 00:41 -4.59807 -82.19014 37930 ft 484 kts 324°
2026-05-06 00:42 -4.48665 -82.26589 37927 ft 484 kts 324°
2026-05-06 00:42 -4.42279 -82.30929 37922 ft 485 kts 324°
2026-05-06 00:43 -4.36694 -82.34725 37929 ft 485 kts 324°
2026-05-06 00:43 -4.31108 -82.38519 37927 ft 484 kts 324°
2026-05-06 00:44 -4.25529 -82.42309 37930 ft 484 kts 324°
2026-05-06 00:44 -4.19945 -82.46102 37924 ft 484 kts 324°
2026-05-06 00:45 -4.14372 -82.49886 37923 ft 484 kts 324°
2026-05-06 00:45 -4.08793 -82.53673 37926 ft 484 kts 324°
2026-05-06 00:46 -4.04159 -82.56819 37924 ft 484 kts 324°
2026-05-06 00:46 -3.97676 -82.61219 37930 ft 484 kts 324°
2026-05-06 00:47 -3.90876 -82.65833 37925 ft 484 kts 324°
2026-05-06 00:47 -3.79723 -82.73398 37935 ft 484 kts 324°
2026-05-06 00:48 -3.68630 -82.80922 37930 ft 485 kts 324°
2026-05-06 00:48 -3.57455 -82.88498 37932 ft 484 kts 324°
2026-05-06 00:49 -3.46290 -82.96065 37928 ft 484 kts 324°
2026-05-06 00:49 -3.35117 -83.03641 37932 ft 485 kts 324°
2026-05-06 00:50 -3.23937 -83.11228 37930 ft 485 kts 324°
2026-05-06 00:50 -3.12747 -83.18818 37926 ft 485 kts 324°
2026-05-06 00:51 -3.01585 -83.26388 37928 ft 485 kts 324°
2026-05-06 00:51 -2.90414 -83.33963 37930 ft 485 kts 324°
2026-05-06 00:52 -2.79235 -83.41540 37925 ft 485 kts 324°
2026-05-06 00:52 -2.68131 -83.49066 37931 ft 485 kts 324°
2026-05-06 00:53 -2.56885 -83.56686 37930 ft 485 kts 324°
2026-05-06 00:53 -2.45801 -83.64194 37929 ft 485 kts 324°
2026-05-06 00:54 -2.34633 -83.71758 37923 ft 485 kts 324°
2026-05-06 00:54 -2.23464 -83.79321 37925 ft 485 kts 324°
2026-05-06 00:55 -2.12280 -83.86893 37930 ft 485 kts 324°
2026-05-06 00:55 -2.01098 -83.94462 37929 ft 485 kts 324°
2026-05-06 00:56 -1.89928 -84.02021 37930 ft 485 kts 324°
2026-05-06 00:56 -1.78757 -84.09581 37930 ft 484 kts 324°
2026-05-06 00:56 -1.73168 -84.13362 38050 ft 486 kts 324°
2026-05-06 00:57 -1.67579 -84.17146 38239 ft 486 kts 324°
2026-05-06 00:57 -1.61987 -84.20936 38361 ft 485 kts 324°
2026-05-06 00:57 -1.56398 -84.24723 38467 ft 485 kts 324°
2026-05-06 00:58 -1.45219 -84.32296 38625 ft 485 kts 324°
2026-05-06 00:58 -1.34143 -84.39801 38724 ft 484 kts 324°
2026-05-06 00:59 -1.23002 -84.47350 38851 ft 483 kts 324°
2026-05-06 00:59 -1.15112 -84.52695 38902 ft 483 kts 324°
2026-05-06 01:00 -1.09544 -84.56468 38947 ft 483 kts 324°
2026-05-06 01:00 -1.03983 -84.60237 39081 ft 482 kts 324°
2026-05-06 01:00 -1.01218 -84.62110 39293 ft 479 kts 324°
2026-05-06 01:01 -0.97036 -84.64943 39600 ft 475 kts 324°
2026-05-06 01:01 -0.91569 -84.68649 39881 ft 473 kts 324°
2026-05-06 01:01 -0.86118 -84.72347 39916 ft 473 kts 324°
2026-05-06 01:02 -0.75247 -84.79704 39914 ft 472 kts 324°
2026-05-06 01:02 -0.64360 -84.87078 39909 ft 473 kts 324°
2026-05-06 01:03 -0.53466 -84.94456 39911 ft 473 kts 324°
2026-05-06 01:03 -0.42576 -85.01831 39907 ft 473 kts 324°
2026-05-06 01:04 -0.31690 -85.09203 39894 ft 472 kts 324°
2026-05-06 01:04 -0.20785 -85.16542 39912 ft 472 kts 325°
2026-05-06 01:05 -0.09842 -85.23828 39911 ft 473 kts 325°
2026-05-06 01:05 0.01130 -85.31152 39909 ft 475 kts 325°
2026-05-06 01:06 0.12126 -85.38492 39910 ft 475 kts 325°
2026-05-06 01:06 0.23028 -85.45770 39909 ft 474 kts 325°
2026-05-06 01:07 0.33995 -85.53092 39912 ft 474 kts 325°
2026-05-06 01:07 0.44959 -85.60411 39909 ft 473 kts 325°
2026-05-06 01:08 0.55894 -85.67712 39910 ft 473 kts 325°
2026-05-06 01:08 0.66829 -85.75013 39909 ft 473 kts 325°
2026-05-06 01:09 0.77777 -85.82323 39910 ft 473 kts 326°
2026-05-06 01:09 0.88709 -85.89623 39907 ft 473 kts 326°
2026-05-06 01:10 0.99654 -85.96931 39908 ft 473 kts 326°
2026-05-06 01:10 1.10528 -86.04194 39909 ft 473 kts 326°
2026-05-06 01:11 1.21494 -86.11518 39908 ft 475 kts 326°
2026-05-06 01:11 1.32492 -86.18864 39906 ft 475 kts 327°
2026-05-06 01:12 1.43498 -86.26220 39907 ft 476 kts 326°
2026-05-06 01:12 1.54486 -86.33627 39909 ft 476 kts 326°
2026-05-06 01:13 1.65494 -86.41048 39908 ft 477 kts 327°
2026-05-06 01:13 1.83843 -86.53415 39909 ft 477 kts 327°
2026-05-06 01:14 2.16169 -86.75210 39909 ft 476 kts 327°
2026-05-06 01:14 2.27156 -86.82620 39909 ft 476 kts 327°
2026-05-06 01:15 2.38198 -86.90068 39910 ft 481 kts 326°
2026-05-06 01:15 2.49285 -86.97549 39912 ft 481 kts 326°
2026-05-06 01:16 2.60380 -87.05037 39908 ft 480 kts 326°
2026-05-06 01:16 2.79438 -87.17902 39909 ft 485 kts 327°
2026-05-06 01:17 3.01834 -87.33027 39909 ft 485 kts 326°
2026-05-06 01:17 3.15905 -87.42533 39909 ft 490 kts 327°
2026-05-06 01:18 3.27200 -87.50166 39909 ft 489 kts 327°
2026-05-06 01:18 3.38475 -87.57788 39909 ft 489 kts 327°
2026-05-06 01:19 3.49698 -87.65378 39912 ft 489 kts 327°
2026-05-06 01:19 3.60992 -87.73017 39909 ft 489 kts 326°
2026-05-06 01:20 3.72274 -87.80651 39905 ft 490 kts 326°
2026-05-06 01:20 3.83560 -87.88289 39907 ft 491 kts 326°
2026-05-06 01:21 3.94921 -87.95981 39908 ft 493 kts 326°
2026-05-06 01:21 4.06302 -88.03689 39909 ft 493 kts 326°
2026-05-06 01:22 4.17671 -88.11391 39911 ft 492 kts 326°
2026-05-06 01:22 4.28936 -88.19026 39908 ft 491 kts 326°
2026-05-06 01:23 4.40268 -88.26709 39909 ft 491 kts 326°
2026-05-06 01:23 4.51522 -88.34342 39905 ft 491 kts 326°
2026-05-06 01:24 4.62851 -88.42029 39910 ft 493 kts 327°
2026-05-06 01:24 4.74222 -88.49746 39907 ft 492 kts 326°
2026-05-06 01:25 4.85553 -88.57441 39903 ft 491 kts 326°
2026-05-06 01:25 4.96875 -88.65133 39893 ft 492 kts 327°
2026-05-06 01:26 5.08234 -88.72852 39909 ft 494 kts 327°
2026-05-06 01:26 5.19612 -88.80589 39909 ft 494 kts 327°
2026-05-06 01:27 5.30976 -88.88318 39909 ft 493 kts 326°
2026-05-06 01:27 5.42350 -88.96058 39894 ft 494 kts 326°
2026-05-06 01:28 5.53664 -89.03761 39893 ft 494 kts 326°
2026-05-06 01:28 5.65043 -89.11512 39911 ft 494 kts 326°
2026-05-06 01:29 5.76429 -89.19271 39895 ft 494 kts 326°
2026-05-06 01:29 5.87792 -89.27019 39911 ft 493 kts 326°
2026-05-06 01:30 5.99131 -89.34754 39912 ft 492 kts 326°
2026-05-06 01:30 6.10448 -89.42478 39892 ft 492 kts 326°
2026-05-06 01:31 6.21780 -89.50216 39905 ft 492 kts 326°
2026-05-06 01:31 6.33112 -89.57959 39907 ft 492 kts 326°
2026-05-06 01:32 6.44364 -89.65650 39894 ft 492 kts 326°
2026-05-06 01:32 6.55681 -89.73391 39911 ft 492 kts 326°
2026-05-06 01:33 6.67009 -89.81143 39890 ft 492 kts 326°
2026-05-06 01:33 6.78323 -89.88891 39907 ft 492 kts 326°
2026-05-06 01:34 6.89656 -89.96655 39891 ft 493 kts 326°
2026-05-06 01:34 6.99070 -90.03109 39892 ft 492 kts 326°
2026-05-06 01:35 7.06136 -90.07953 39890 ft 488 kts 326°
2026-05-06 01:35 7.10789 -90.11145 39906 ft 488 kts 326°
2026-05-06 01:36 7.20657 -90.17913 39893 ft 491 kts 326°
2026-05-06 01:36 7.31375 -90.25277 39910 ft 491 kts 326°
2026-05-06 01:37 7.37022 -90.29158 39908 ft 491 kts 326°
2026-05-06 01:37 7.42665 -90.33037 39891 ft 491 kts 326°
2026-05-06 01:38 7.48308 -90.36918 39906 ft 491 kts 326°
2026-05-06 01:38 7.53946 -90.40797 39900 ft 490 kts 326°
2026-05-06 01:39 7.61867 -90.46248 39896 ft 490 kts 326°
2026-05-06 01:39 7.73154 -90.54019 39914 ft 491 kts 326°
2026-05-06 01:40 7.83426 -90.61097 39908 ft 491 kts 326°
2026-05-06 01:40 7.89065 -90.64984 39912 ft 491 kts 326°
2026-05-06 01:41 7.94704 -90.68873 39911 ft 491 kts 326°
2026-05-06 01:41 8.00353 -90.72769 39897 ft 492 kts 326°
2026-05-06 01:42 8.06006 -90.76670 39903 ft 492 kts 326°
2026-05-06 01:42 8.11654 -90.80569 39918 ft 491 kts 326°
2026-05-06 01:43 8.20983 -90.87011 39917 ft 491 kts 326°
2026-05-06 01:43 8.32250 -90.94797 39899 ft 491 kts 326°
2026-05-06 01:44 8.43519 -91.02590 39914 ft 491 kts 326°
2026-05-06 01:44 8.54803 -91.10399 39912 ft 491 kts 326°
2026-05-06 01:45 8.63653 -91.16526 39915 ft 491 kts 326°
2026-05-06 01:45 8.69282 -91.20426 39898 ft 490 kts 326°
2026-05-06 01:46 8.74903 -91.24322 39916 ft 489 kts 326°
2026-05-06 01:46 8.80509 -91.28209 39916 ft 488 kts 326°
2026-05-06 01:47 8.86109 -91.32093 39899 ft 488 kts 326°
2026-05-06 01:47 8.91705 -91.35976 39913 ft 488 kts 326°
2026-05-06 01:48 8.97306 -91.39864 39913 ft 488 kts 326°
2026-05-06 01:48 9.02963 -91.43792 39898 ft 488 kts 326°
2026-05-06 01:49 9.14162 -91.51572 39900 ft 489 kts 325°
2026-05-06 01:49 9.25363 -91.59360 39902 ft 488 kts 325°
2026-05-06 01:50 9.36557 -91.67149 39915 ft 488 kts 325°
2026-05-06 01:50 9.47735 -91.74934 39913 ft 488 kts 325°
2026-05-06 01:51 9.59063 -91.82830 39918 ft 491 kts 325°
2026-05-06 01:51 9.66584 -91.88074 39918 ft 491 kts 325°
2026-05-06 01:52 9.72214 -91.92003 39902 ft 491 kts 325°
2026-05-06 01:52 9.77797 -91.95901 39902 ft 490 kts 325°
2026-05-06 01:53 9.83419 -91.99827 39903 ft 490 kts 325°
2026-05-06 01:53 9.89028 -92.03746 39900 ft 489 kts 325°
2026-05-06 01:54 9.96754 -92.09146 39919 ft 488 kts 325°
2026-05-06 01:54 10.07594 -92.16729 39901 ft 488 kts 325°
2026-05-06 01:55 10.13184 -92.20642 39905 ft 488 kts 325°
2026-05-06 01:55 10.21136 -92.26211 39921 ft 488 kts 325°
2026-05-06 01:56 10.32306 -92.34040 39921 ft 489 kts 325°
2026-05-06 01:56 10.43506 -92.41895 39923 ft 489 kts 326°
2026-05-06 01:57 10.49838 -92.46338 39920 ft 489 kts 325°
2026-05-06 01:57 10.55396 -92.50240 39921 ft 489 kts 325°
2026-05-06 01:58 10.66361 -92.57945 39921 ft 495 kts 326°
2026-05-06 01:58 10.77706 -92.65923 39921 ft 495 kts 326°
2026-05-06 01:59 10.87649 -92.72922 39905 ft 496 kts 326°
2026-05-06 01:59 10.97993 -92.80209 39915 ft 496 kts 325°
2026-05-06 02:00 11.09364 -92.88227 39903 ft 497 kts 325°
2026-05-06 02:00 11.19801 -92.95593 39916 ft 496 kts 325°
2026-05-06 02:01 11.25486 -92.99608 39915 ft 497 kts 325°
2026-05-06 02:01 11.31162 -93.03618 39907 ft 496 kts 325°
2026-05-06 02:02 11.36847 -93.07637 39920 ft 497 kts 325°
2026-05-06 02:02 11.42525 -93.11654 39908 ft 497 kts 325°
2026-05-06 02:03 11.48204 -93.15672 39917 ft 497 kts 325°
2026-05-06 02:03 11.57211 -93.22050 39902 ft 497 kts 325°
2026-05-06 02:04 11.67344 -93.29231 39909 ft 496 kts 325°
2026-05-06 02:04 11.73007 -93.33251 40158 ft 492 kts 325°
2026-05-06 02:05 11.75812 -93.35242 40304 ft 491 kts 324°
2026-05-06 02:05 11.78628 -93.37239 40330 ft 494 kts 325°
2026-05-06 02:05 11.85856 -93.42364 40331 ft 488 kts 325°
2026-05-06 02:06 11.88660 -93.44355 39626 ft 495 kts 325°
2026-05-06 02:06 11.91487 -93.46363 39070 ft 495 kts 325°
2026-05-06 02:06 11.94308 -93.48368 38863 ft 493 kts 325°
2026-05-06 02:06 11.97114 -93.50362 38960 ft 490 kts 325°
2026-05-06 02:07 11.99899 -93.52342 39284 ft 485 kts 325°
2026-05-06 02:07 12.02657 -93.54304 39628 ft 480 kts 325°
2026-05-06 02:07 12.05394 -93.56251 39864 ft 478 kts 324°
2026-05-06 02:07 12.08469 -93.58439 39919 ft 480 kts 324°
2026-05-06 02:08 12.18202 -93.65370 39914 ft 491 kts 324°
2026-05-06 02:08 12.23834 -93.69384 39898 ft 496 kts 324°
2026-05-06 02:09 12.32871 -93.75827 39898 ft 496 kts 324°
2026-05-06 02:09 12.44169 -93.83890 39897 ft 493 kts 324°
2026-05-06 02:10 12.54511 -93.91280 39908 ft 493 kts 324°
2026-05-06 02:10 12.60138 -93.95303 39907 ft 493 kts 324°
2026-05-06 02:11 12.65768 -93.99331 39892 ft 493 kts 324°
2026-05-06 02:11 12.75343 -94.06187 39902 ft 493 kts 324°
2026-05-06 02:12 12.86580 -94.14240 39904 ft 493 kts 324°
2026-05-06 02:12 12.95527 -94.20659 39902 ft 493 kts 324°
2026-05-06 02:13 13.06769 -94.28732 39887 ft 493 kts 324°
2026-05-06 02:13 13.17231 -94.36253 39900 ft 493 kts 324°
2026-05-06 02:14 13.22808 -94.40266 39882 ft 493 kts 324°
2026-05-06 02:14 13.28420 -94.44306 39898 ft 493 kts 324°
2026-05-06 02:15 13.34032 -94.48348 39904 ft 493 kts 324°
2026-05-06 02:15 13.39648 -94.52389 39900 ft 493 kts 324°
2026-05-06 02:16 13.49269 -94.59314 39901 ft 492 kts 324°
2026-05-06 02:16 13.60452 -94.67377 39883 ft 491 kts 324°
2026-05-06 02:17 13.67819 -94.72694 39900 ft 491 kts 324°
2026-05-06 02:17 13.72467 -94.76050 39886 ft 491 kts 324°
2026-05-06 02:18 13.78960 -94.80742 39903 ft 491 kts 324°
2026-05-06 02:18 13.83641 -94.84126 39902 ft 491 kts 324°
2026-05-06 02:19 13.89228 -94.88168 39901 ft 491 kts 324°
2026-05-06 02:19 13.94820 -94.92215 39900 ft 491 kts 324°
2026-05-06 02:20 14.03162 -94.98258 39902 ft 491 kts 324°
2026-05-06 02:21 14.08750 -95.02309 39887 ft 491 kts 324°
2026-05-06 02:21 14.14332 -95.06358 39886 ft 491 kts 324°
2026-05-06 02:22 14.19915 -95.10410 39888 ft 491 kts 324°
2026-05-06 02:22 14.25509 -95.14473 39903 ft 492 kts 324°
2026-05-06 02:23 14.31106 -95.18540 39901 ft 492 kts 324°
2026-05-06 02:23 14.42143 -95.26568 39883 ft 492 kts 324°
2026-05-06 02:24 14.49468 -95.31902 39901 ft 492 kts 324°
2026-05-06 02:24 14.55053 -95.35972 39886 ft 492 kts 324°
2026-05-06 02:25 14.65794 -95.43805 39888 ft 492 kts 324°
2026-05-06 02:25 14.73416 -95.49370 39835 ft 493 kts 324°
2026-05-06 02:26 14.79030 -95.53472 39903 ft 494 kts 324°
2026-05-06 02:26 14.84633 -95.57568 39886 ft 492 kts 324°
2026-05-06 02:27 14.90216 -95.61653 39891 ft 492 kts 324°
2026-05-06 02:27 14.95806 -95.65745 39903 ft 492 kts 324°
2026-05-06 02:28 15.01401 -95.69844 39899 ft 492 kts 324°
2026-05-06 02:28 15.06999 -95.73947 39889 ft 492 kts 324°
2026-05-06 02:29 15.12551 -95.78026 39890 ft 493 kts 324°
2026-05-06 02:29 15.18138 -95.82132 39890 ft 492 kts 324°
2026-05-06 02:30 15.23726 -95.86239 39889 ft 493 kts 324°
2026-05-06 02:30 15.29320 -95.90353 39886 ft 493 kts 324°
2026-05-06 02:31 15.34921 -95.94478 39900 ft 493 kts 323°
2026-05-06 02:31 15.38602 -95.97190 39902 ft 493 kts 324°
2026-05-06 02:32 15.42638 -96.00165 39900 ft 493 kts 324°
2026-05-06 02:32 15.48200 -96.04267 39904 ft 493 kts 323°
2026-05-06 02:33 15.53797 -96.08398 39895 ft 493 kts 323°
2026-05-06 02:33 15.55682 -96.09789 39894 ft 493 kts 323°
2026-05-06 02:34 15.64969 -96.16652 39910 ft 492 kts 323°
2026-05-06 02:34 15.70551 -96.20787 39928 ft 493 kts 323°
2026-05-06 02:35 15.76151 -96.24871 39911 ft 489 kts 327°
2026-05-06 02:35 15.82244 -96.27885 39914 ft 483 kts 338°
2026-05-06 02:36 15.88508 -96.30397 39924 ft 483 kts 339°
2026-05-06 02:36 15.94802 -96.32830 39929 ft 481 kts 339°
2026-05-06 02:37 16.01086 -96.35268 39951 ft 484 kts 339°
2026-05-06 02:37 16.07405 -96.37740 39966 ft 485 kts 339°
2026-05-06 02:38 16.13665 -96.40197 39994 ft 479 kts 339°
2026-05-06 02:38 16.19862 -96.42631 39999 ft 474 kts 339°
2026-05-06 02:39 16.26035 -96.45058 39990 ft 474 kts 338°
2026-05-06 02:39 16.32204 -96.47484 39997 ft 475 kts 338°
2026-05-06 02:40 16.38425 -96.49933 39996 ft 479 kts 338°
2026-05-06 02:40 16.44671 -96.52393 39973 ft 480 kts 338°
2026-05-06 02:41 16.50921 -96.54855 39982 ft 480 kts 338°
2026-05-06 02:41 16.57171 -96.57320 39959 ft 480 kts 338°
2026-05-06 02:42 16.63369 -96.59769 39965 ft 479 kts 338°
2026-05-06 02:42 16.69617 -96.62229 39950 ft 481 kts 338°
2026-05-06 02:43 16.75909 -96.64709 39952 ft 484 kts 338°
2026-05-06 02:43 16.82211 -96.67196 39955 ft 484 kts 338°
2026-05-06 02:44 16.88515 -96.69686 40125 ft 484 kts 338°
2026-05-06 02:44 16.94821 -96.72199 40148 ft 484 kts 335°
2026-05-06 02:45 17.00633 -96.75656 40147 ft 480 kts 324°
2026-05-06 02:45 17.06127 -96.79624 40145 ft 480 kts 323°
2026-05-06 02:46 17.11569 -96.83676 40103 ft 480 kts 323°
2026-05-06 02:46 17.17016 -96.87732 40060 ft 482 kts 323°
2026-05-06 02:47 17.22514 -96.91806 40015 ft 486 kts 323°
2026-05-06 02:47 17.28031 -96.95888 39978 ft 486 kts 323°
2026-05-06 02:48 17.33544 -96.99973 39981 ft 485 kts 323°
2026-05-06 02:48 17.39055 -97.04059 39973 ft 485 kts 323°
2026-05-06 02:49 17.44524 -97.08113 39976 ft 485 kts 323°
2026-05-06 02:49 17.50029 -97.12197 39968 ft 485 kts 323°
2026-05-06 02:50 17.55531 -97.16284 39983 ft 485 kts 323°
2026-05-06 02:50 17.60831 -97.20591 39985 ft 477 kts 316°
2026-05-06 02:51 17.65608 -97.25268 39971 ft 466 kts 314°
2026-05-06 02:51 17.70266 -97.29972 39977 ft 465 kts 314°
2026-05-06 02:52 17.74917 -97.34691 39961 ft 465 kts 314°
2026-05-06 02:52 17.79579 -97.39410 39960 ft 465 kts 314°
2026-05-06 02:53 17.84240 -97.44124 39962 ft 465 kts 314°
2026-05-06 02:53 17.88900 -97.48838 39944 ft 465 kts 314°
2026-05-06 02:54 17.93566 -97.53562 39947 ft 465 kts 314°
2026-05-06 02:54 17.98210 -97.58266 39947 ft 461 kts 314°
2026-05-06 02:55 18.02773 -97.62892 39676 ft 457 kts 314°
2026-05-06 02:55 18.05063 -97.65215 39109 ft 459 kts 314°
2026-05-06 02:55 18.07365 -97.67552 38532 ft 461 kts 314°
2026-05-06 02:55 18.09672 -97.69896 37951 ft 461 kts 314°
2026-05-06 02:56 18.11977 -97.72237 37390 ft 461 kts 314°
2026-05-06 02:56 18.14286 -97.74584 36766 ft 462 kts 314°
2026-05-06 02:56 18.16604 -97.76941 36103 ft 464 kts 314°
2026-05-06 02:56 18.18931 -97.79308 35458 ft 467 kts 314°
2026-05-06 02:57 18.21275 -97.81694 34768 ft 470 kts 314°
2026-05-06 02:57 18.23632 -97.84092 34099 ft 473 kts 315°
2026-05-06 02:57 18.26002 -97.86510 33332 ft 476 kts 315°
2026-05-06 02:57 18.28391 -97.88942 32449 ft 481 kts 315°
2026-05-06 02:58 18.30815 -97.91411 31495 ft 488 kts 315°
2026-05-06 02:58 18.33267 -97.93908 30674 ft 493 kts 315°
2026-05-06 02:58 18.35743 -97.96431 29828 ft 497 kts 315°
2026-05-06 02:58 18.38225 -97.98962 29153 ft 495 kts 315°
2026-05-06 02:59 18.40679 -98.01465 28684 ft 488 kts 315°
2026-05-06 02:59 18.43108 -98.03944 28109 ft 484 kts 315°
2026-05-06 02:59 18.45509 -98.06396 27670 ft 478 kts 315°
2026-05-06 02:59 18.47896 -98.08836 27488 ft 479 kts 315°
2026-05-06 03:00 18.50283 -98.11277 27322 ft 479 kts 315°
2026-05-06 03:00 18.52674 -98.13721 27175 ft 478 kts 315°
2026-05-06 03:00 18.55051 -98.16153 27018 ft 474 kts 315°
2026-05-06 03:00 18.57416 -98.18574 26853 ft 471 kts 315°
2026-05-06 03:01 18.59733 -98.20946 26651 ft 470 kts 315°
2026-05-06 03:01 18.62104 -98.23374 26495 ft 469 kts 315°
2026-05-06 03:01 18.64405 -98.25733 26322 ft 467 kts 315°
2026-05-06 03:01 18.66737 -98.28124 26194 ft 466 kts 315°
2026-05-06 03:02 18.69049 -98.30517 26025 ft 465 kts 314°
2026-05-06 03:02 18.71033 -98.33192 25863 ft 462 kts 299°
2026-05-06 03:02 18.72265 -98.36283 25575 ft 453 kts 283°
2026-05-06 03:02 18.72922 -98.39487 25350 ft 441 kts 279°
2026-05-06 03:03 18.73471 -98.42603 25036 ft 424 kts 279°
2026-05-06 03:03 18.74003 -98.45625 24497 ft 415 kts 279°
2026-05-06 03:03 18.74533 -98.48601 23878 ft 410 kts 280°
2026-05-06 03:03 18.75060 -98.51534 23197 ft 405 kts 280°
2026-05-06 03:04 18.75585 -98.54436 22462 ft 401 kts 280°
2026-05-06 03:04 18.76107 -98.57314 21749 ft 397 kts 280°
2026-05-06 03:04 18.76626 -98.60171 21087 ft 397 kts 280°
2026-05-06 03:04 18.76970 -98.62064 20795 ft 396 kts 280°
2026-05-06 03:05 18.77486 -98.64906 20394 ft 393 kts 281°
2026-05-06 03:05 18.78171 -98.68676 19917 ft 389 kts 280°
2026-05-06 03:05 18.78678 -98.71474 19522 ft 387 kts 281°
2026-05-06 03:05 18.79013 -98.73319 19223 ft 387 kts 281°
2026-05-06 03:06 18.79520 -98.76117 18734 ft 389 kts 281°
2026-05-06 03:06 18.80027 -98.78918 18332 ft 388 kts 281°
2026-05-06 03:06 18.80532 -98.81708 17891 ft 386 kts 281°
2026-05-06 03:06 18.81083 -98.84466 17621 ft 382 kts 283°
2026-05-06 03:07 18.81686 -98.87195 17573 ft 382 kts 284°
2026-05-06 03:07 18.82605 -98.89815 17559 ft 380 kts 298°
2026-05-06 03:07 18.84103 -98.92050 17348 ft 368 kts 317°
2026-05-06 03:07 18.86116 -98.93574 17078 ft 348 kts 338°
2026-05-06 03:08 18.88382 -98.94225 16740 ft 331 kts 359°
2026-05-06 03:08 18.90608 -98.93980 16389 ft 318 kts 20°
2026-05-06 03:08 18.92693 -98.93287 15851 ft 315 kts
2026-05-06 03:08 18.94869 -98.93447 15399 ft 315 kts 347°
2026-05-06 03:09 18.96955 -98.94132 14966 ft 313 kts 343°
2026-05-06 03:09 18.99008 -98.94866 14577 ft 309 kts 343°
2026-05-06 03:09 19.01048 -98.95579 14336 ft 308 kts 343°
2026-05-06 03:09 19.03085 -98.96276 14224 ft 308 kts 343°
2026-05-06 03:10 19.05140 -98.96971 14188 ft 311 kts 344°
2026-05-06 03:10 19.07209 -98.97664 14094 ft 312 kts 344°
2026-05-06 03:10 19.09277 -98.98354 14009 ft 312 kts 344°
2026-05-06 03:10 19.11355 -98.99046 13921 ft 314 kts 345°
2026-05-06 03:11 19.13456 -98.99745 13839 ft 317 kts 345°
2026-05-06 03:11 19.15555 -99.00443 13747 ft 315 kts 343°
2026-05-06 03:11 19.17612 -99.01222 13563 ft 314 kts 332°
2026-05-06 03:11 19.19308 -99.02595 13406 ft 308 kts 318°
2026-05-06 03:12 19.20829 -99.04120 13239 ft 294 kts 316°
2026-05-06 03:12 19.22264 -99.05580 13028 ft 279 kts 317°
2026-05-06 03:12 19.23635 -99.06963 12794 ft 266 kts 317°
2026-05-06 03:12 19.25047 -99.08177 12401 ft 258 kts 325°
2026-05-06 03:13 19.26512 -99.09264 11901 ft 256 kts 327°
2026-05-06 03:13 19.27966 -99.10316 11428 ft 250 kts 327°
2026-05-06 03:13 19.29388 -99.11344 11005 ft 244 kts 327°
2026-05-06 03:13 19.30768 -99.12344 10677 ft 234 kts 326°
2026-05-06 03:14 19.32079 -99.13294 10335 ft 223 kts 326°
2026-05-06 03:14 19.33333 -99.14205 9997 ft 213 kts 326°
2026-05-06 03:14 19.34523 -99.15070 9674 ft 204 kts 326°
2026-05-06 03:14 19.35692 -99.15918 9386 ft 203 kts 326°
2026-05-06 03:15 19.36942 -99.16538 9158 ft 196 kts 350°
2026-05-06 03:15 19.38201 -99.16236 8954 ft 183 kts 36°
2026-05-06 03:15 19.39072 -99.15339 8877 ft 170 kts 63°
2026-05-06 03:15 19.39583 -99.14213 8875 ft 171 kts 66°
2026-05-06 03:16 19.40141 -99.13106 8654 ft 170 kts 61°
2026-05-06 03:16 19.40777 -99.12076 8305 ft 170 kts 56°
2026-05-06 03:16 19.41412 -99.11008 7964 ft 168 kts 59°
2026-05-06 03:16 19.41961 -99.09957 7762 ft 163 kts 61°
2026-05-06 03:17 19.42494 -99.08931 7486 ft 153 kts 60°
2026-05-06 03:17 19.43038 -99.07991 7328 ft 144 kts 58°
2026-05-06 03:17 19.43473 -99.07196 7307 ft 82 kts 62°
2026-05-06 03:17 19.43660 -99.06875 7308 ft 44 kts 57°
2026-05-06 03:18 19.43805 -99.06615 7307 ft 35 kts 57°
2026-05-06 03:18 19.43882 -99.06528 7307 ft 16 kts 36°
2026-05-06 03:18 19.43990 -99.06460 7307 ft 23 kts 27°
2026-05-06 03:18 19.44083 -99.06406 7307 ft 15 kts 28°
2026-05-06 03:19 19.44192 -99.06344 7307 ft 18 kts 28°
2026-05-06 03:19 19.44302 -99.06291 7306 ft 22 kts 19°
2026-05-06 03:19 19.44400 -99.06318 7307 ft 1 kts 311°
2026-05-06 03:19 19.44404 -99.06326 7307 ft 4 kts 295°
2026-05-06 03:20 19.44361 -99.06431 7307 ft 0 kts 239°
2026-05-06 03:21 19.44359 -99.06434 7307 ft 2 kts 239°
2026-05-06 03:21 19.44341 -99.06466 7308 ft 6 kts 239°
2026-05-06 03:21 19.44318 -99.06508 7307 ft 7 kts 239°
2026-05-06 03:21 19.44294 -99.06551 7309 ft 7 kts 239°
2026-05-06 03:22 19.44266 -99.06600 7309 ft 14 kts 239°
2026-05-06 03:22 19.44194 -99.06729 7308 ft 21 kts 239°
2026-05-06 03:22 19.44119 -99.06863 7308 ft 21 kts 239°
2026-05-06 03:22 19.44046 -99.06995 7307 ft 21 kts 239°
2026-05-06 03:23 19.43974 -99.07125 7308 ft 20 kts 239°
2026-05-06 03:23 19.43902 -99.07254 7308 ft 20 kts 239°
2026-05-06 03:23 19.43831 -99.07379 7307 ft 20 kts 238°
2026-05-06 03:23 19.43760 -99.07503 7308 ft 19 kts 238°
2026-05-06 03:24 19.43689 -99.07625 7308 ft 19 kts 238°
2026-05-06 03:24 19.43620 -99.07745 7309 ft 19 kts 239°
2026-05-06 03:24 19.43553 -99.07866 7307 ft 19 kts 239°
2026-05-06 03:24 19.43496 -99.07975 7307 ft 11 kts 252°
2026-05-06 03:25 19.43525 -99.08030 7307 ft 9 kts 320°
2026-05-06 03:25 19.43547 -99.08047 7309 ft 1 kts 326°
2026-05-06 03:25 19.43548 -99.08047 7308 ft 0 kts 328°
2026-05-06 03:26 19.43549 -99.08047 7308 ft 0 kts 328°